AAL1874 KPNS-KDFW

Flight info

Callsign AAL1874
Flight time N/A
Altitude 16000
Route PENSI V198 LOXLY/N0460F360 SJI AEX PNUTS BEREE3
Aircraft A320/M-SDE3FGHIRWY/LB1

Departure

Time 2026-05-04 00:20
Airport Pensacola International Airport (KPNS)

Arrival

Time N/A
Airport Dallas Fort Worth International Airport (KDFW)
Time Latitude Longitude Altitude Speed Heading
2026-05-04 00:09 30.47479 -87.19283 126 ft 0 kts 27°
2026-05-04 00:10 30.47466 -87.19291 124 ft 3 kts 27°
2026-05-04 00:10 30.47450 -87.19304 124 ft 3 kts 64°
2026-05-04 00:10 30.47447 -87.19326 128 ft 3 kts 108°
2026-05-04 00:10 30.47447 -87.19327 128 ft 0 kts 112°
2026-05-04 00:12 30.47443 -87.19318 128 ft 4 kts 118°
2026-05-04 00:12 30.47425 -87.19298 128 ft 9 kts 150°
2026-05-04 00:12 30.47356 -87.19314 127 ft 11 kts 208°
2026-05-04 00:13 30.47291 -87.19331 124 ft 8 kts 169°
2026-05-04 00:13 30.47236 -87.19318 126 ft 8 kts 168°
2026-05-04 00:13 30.47196 -87.19284 125 ft 8 kts 103°
2026-05-04 00:13 30.47205 -87.19209 124 ft 13 kts 78°
2026-05-04 00:14 30.47228 -87.19085 127 ft 16 kts 78°
2026-05-04 00:14 30.47240 -87.18962 126 ft 14 kts 113°
2026-05-04 00:14 30.47168 -87.18925 126 ft 11 kts 167°
2026-05-04 00:14 30.47098 -87.18907 126 ft 10 kts 167°
2026-05-04 00:15 30.47023 -87.18887 126 ft 14 kts 167°
2026-05-04 00:15 30.46915 -87.18858 126 ft 15 kts 167°
2026-05-04 00:15 30.46797 -87.18826 127 ft 20 kts 167°
2026-05-04 00:15 30.46647 -87.18788 128 ft 22 kts 166°
2026-05-04 00:16 30.46639 -87.18785 129 ft 22 kts 166°
2026-05-04 00:16 30.46582 -87.18770 127 ft 21 kts 167°
2026-05-04 00:16 30.46455 -87.18736 129 ft 16 kts 167°
2026-05-04 00:17 30.46404 -87.18675 130 ft 9 kts 86°
2026-05-04 00:17 30.46408 -87.18656 129 ft 0 kts 76°
2026-05-04 00:19 30.46417 -87.18615 127 ft 12 kts 72°
2026-05-04 00:19 30.46512 -87.18594 128 ft 19 kts 347°
2026-05-04 00:19 30.46794 -87.18668 127 ft 74 kts 347°
2026-05-04 00:19 30.47519 -87.18860 133 ft 137 kts 347°
2026-05-04 00:20 30.48513 -87.19108 675 ft 151 kts 347°
2026-05-04 00:20 30.49571 -87.19400 1328 ft 164 kts 346°
2026-05-04 00:20 30.50732 -87.19750 1971 ft 179 kts 346°
2026-05-04 00:20 30.51978 -87.20114 2727 ft 187 kts 346°
2026-05-04 00:21 30.53261 -87.20506 3427 ft 200 kts 345°
2026-05-04 00:21 30.54679 -87.20957 3929 ft 219 kts 345°
2026-05-04 00:21 30.56187 -87.21440 4607 ft 232 kts 345°
2026-05-04 00:21 30.57742 -87.21951 5587 ft 230 kts 341°
2026-05-04 00:22 30.59069 -87.23034 6353 ft 241 kts 310°
2026-05-04 00:22 30.59783 -87.24814 7103 ft 251 kts 285°
2026-05-04 00:22 30.60104 -87.26862 7701 ft 264 kts 281°
2026-05-04 00:22 30.60430 -87.28975 8354 ft 269 kts 282°
2026-05-04 00:23 30.60797 -87.31128 9064 ft 281 kts 283°
2026-05-04 00:23 30.61197 -87.33388 10014 ft 289 kts 283°
2026-05-04 00:23 30.61601 -87.35679 10941 ft 291 kts 282°
2026-05-04 00:23 30.62006 -87.37994 11937 ft 292 kts 282°
2026-05-04 00:24 30.62413 -87.40325 12790 ft 299 kts 282°
2026-05-04 00:24 30.62835 -87.42751 13434 ft 312 kts 282°
2026-05-04 00:24 30.63106 -87.44318 13817 ft 320 kts 281°